DELTA 1 DEB, 7133

Orbit data source: Space-Track

DELTA 1 DEB, 7133 is space debris in SSO originally from a launch on Tue, 06 Nov 1973 UTC launched from the Air Force Western Test Range (AFWTR). Debris objects in space refer to the collection of defunct objects orbiting the Earth. Examples of debris include non-operational satellites, rocket bodies, and fragments generated from explosions, collisions, or faulty payload assembly.

Loading next visibility...
Identifier
7133, 1973-086CX
Orbit
SSO
Country
Flag of USUS
Related business
Manufacturer
Unknown
Mission
Spacecraft
Bus & Motor
Unknown
Mass
Unknown
Launch date (UTC)
1973-11-06 (52 years ago)
Launch vehicle
Unknown
Launch site
Air Force Western Test Range (AFWTR)
Object type
Payload
Rocket body
Debris
Shape & HBR
Unknown shape, 0.1 m
Radar Cross Section
Small (<0.1 m²)

Expand to show TLE details & history
Last TLE update: 19 hours ago

TLE from 19 hours ago
0 DELTA 1 DEB
1  7133U 73086CX  26122.32498936  .00000151  00000-0  14168-2 0  9994
2  7133 101.6666 158.4528 0037606  58.2849   5.2763 12.41586019374658
Epoch: 2026-05-02T07:47Z
TLE epoch observation values (Epoch: 2026-05-02T07:47:59.080Z)
Latitude
61.39774°
Longitude
159.07517°
Altitude
1,480.699 km
Speed
7.142 km/s
True Right ascension
09h 05m 15s
True Declination
61° 15' 59"
Sunlit
Object was in daylight at epoch
Visualization orbit readout
Latitude
Unknown
Longitude
Unknown
Altitude
Unknown
Speed
Unknown
Apparent Right ascension
Unknown
Apparent Declination
Unknown
Sunlit
N/A
Visualization observer readout
Local Sidereal Time
10:21:16
Azimuth
Unknown
Elevation
Unknown
Doppler factor
Unknown
Orbital elements
Apogee altitude
1,527.057 km
Perigee altitude
1,467.823 km
Semi-major axis
7,875.577 km
Eccentricity
0.00376
Inclination
101.6666°
RAAN
158.4528°
Arg. of periapsis
58.2849°
True anomaly
5.31611°
Mean anomaly
5.2763°
Eccentric anomaly
5.29619°
Mean motion
3.10541 °/min
Orbital period
115.93 mins
BSTAR
0.0014168
Loading maneuver chart data...
Computing Atmospheric mass density...
Loading historical data...
Loading historical data...
Loading historical data...
Loading historical data...
Loading historical data...
Loading historical data...
Loading historical data...

Documentation

Showing up to 5 results
|